SCP
0 0 0 0 0 0 0 0 0 0 0 0 0 0 0 0 0 0 0 0 0 0 0 0 0 0 0 0 0 0 0 0 0 0 0 0 0 0 0 0 0 0 0
0 0 0 0 0 0 0 0 0 0 0 0 0 0 0 0 0 0 0 0 0 0 0 0 0 0 0 0 0 0 0 0 0 0 0 0 0 0 0 0 0 0 0
0 0 0 0 0 0 0 0 0 0 0 0 0 0 0 0 0 0 0 0 0 0 0 0 0 0 0 0 0 0 0 0 0 0 0 0 0 0 0 0 0 0 0
0 0 0 0 0 0 0 0 0 0 0 0 0 0 0 0 0 0 0 0 0 0 0 0 0 0 0 0 0 0 0 0 0 0 0 0 0 0 0 0 0 0 0
0 0 0 0 0 0 0 0 0 0 0 0 0 0 0 0 0 0 0 0 0 0 0 0 0 0 0 0 0 0 0 0 0 0 0 0 0 0 0 0 0 0 0
0 0 0 0 0 0 0 0 0 0 0 0 0 0 0 0 0 0 0 0 0 0 0 0 0 0 0 0 0 0 0 0 0 0 0 0 0 0 0 0 0 0 0
0 0 0 0 0 0 0 0 0 0 0 0 0 0 0 0 0 0 0 0 0 0 0 0 0 0 0 0 0 0 0 0 0 0 0 0 0 0 0 0 0 0 0
0 0 0 0 0 0 0 0 0 0 0 0 0 0 0 0 0 0 0 0 0 0 0 0 0 0 0 0 0 0 0 0 0 0 0 0 0 0 0 0 0 0 0
0 0 0 0 0 0 0 0 0 0 0 0 0 0 0 0 0 0 0 0 0 0 0 0 0 0 0 0 0 0 0 0 0 0 0 0 0 0 0 0 0 0 0
0 0 0 0 0 0 0 0 0 0 0 0 0 0 0 0 0 0 0 0 0 0 0 0 0 0 0 0 0 0 0 0 0 0 0 0 0 0 0 0 0 0 0
0 0 0 0 0 0 0 0 0 0 0 0 0 0 0 0 0 0 0 0 0 0 0 0 0 0 0 0 0 0 0 0 0 0 0 0 0 0 0 0 0 0 0
0 0 0 0 0 0 0 0 0 0 0 0 0 0 0 0 0 0 0 0 0 0 0 0 0 0 0 0 0 0 0 0 0 0 0 0 0 0 0 0 0 0 0
0 0 0 0 0 0 0 0 0 0 0 0 0 0 0 0 0 0 0 0 0 0 0 0 0 0 0 0 0 0 0 0 0 0 0 0 0 0 0 0 0 0 0
0 0 0 0 0 0 0 0 0 0 0 0 0 0 0 0 0 0 0 0 0 0 0 0 0 0 0 0 0 0 0 0 0 0 0 0 0 0 0 0 0 0 0
0 0 0 0 0 0 0 0 0 0 0 0 0 0 0 0 0 0 0 0 0 0 0 0 0 0 0 0 0 0 0 0 0 0 0 0 0 0 0 0 0 0 0
0 0 0 0 0 0 0 0 0 0 0 0 0 0 0 0 0 0 0 0 0 0 0 0 0 0 0 0 0 0 0 0 0 0 0 0 0 0 0 0 0 0 0
0 0 0 0 0 0 0 0 0 0 0 0 0 0 0 0 0 0 0 0 0 0 0 0 0 0 0 0 0 0 0 0 0 0 0 0 0 0 0 0 0 0 0
0 0 0 0 0 0 0 0 0 0 0 0 0 -0 -0 -0 0 0 0 0 0 0 0 0 0 0 0 0 0 0 0 0 0 0 0 0 0 0 0 0 0 0 0
0 0 0 0 0 0 0 0 0 0 0 0 -0 -0 -0 -0 0 0 0 0 0 0 0 0 0 -0 0 0 0 0 0 0 0 0 0 0 0 0 0 0 0 0 0
0 0 0 0 0 0 0 0 0 0 -0 -0 -0 -0 -0 0 0 0 0 0 0 0 0 0 0 0 -0 0 0 0 0 0 0 0 0 0 0 0 0 0 0 0 0
0 0 0 0 0 0 0 0 0 0 0 -0 -0 -0 -0 0 0 0 0 0 0 0 0 0 0 0 0 0 0 0 0 0 0 0 0 0 0 0 0 0 0 0 0
0 0 0 0 0 0 0 0 0 0 0 0 0 -0 -0 0 0 0 0 0 0 0 0 0 0 0 0 0 0 0 0 0 0 0 0 0 0 0 0 0 0 0 0
0 0 0 0 0 0 0 0 0 0 0 0 -0 -0 0 0 0 0 0 0 0 0 0 0 0 0 0 0 0 0 0 0 0 0 0 0 0 0 0 0 0 0 0
0 0 0 0 0 0 0 0 0 0 0 0 -0 -0 -0 0 0 0 0 0 0 0 0 0 0 0 0 0 0 0 0 0 0 0 0 0 0 0 0 0 0 0 0
0 0 0 0 0 0 0 0 0 0 0 0 0 -0 -0 0 0 0 0 0 0 0 0 0 0 0 0 0 0 0 0 0 0 0 -0 -0 0 0 0 0 0 0 0
0 0 0 0 -0 0 0 0 0 0 0 0 0 0 0 0 0 0 0 0 0 0 0 0 0 0 0 0 0 0 0 0 0 0 -0 -0 0 0 0 0 0 0 0
Wind_Speed
3 3 3 4 4 4 4 6 5 5 6 6 6 6 6 7 6 5 6 6 6 6 6 6 7 5 4 3 3 3 3 3 3 2 1 0 1 3 3 4 4 5 6
3 3 4 4 4 5 6 6 6 6 6 6 7 7 7 7 6 6 7 7 7 7 7 7 8 6 6 5 4 4 3 3 3 3 2 1 1 3 4 5 4 4 5
3 3 4 5 5 6 6 6 6 6 7 7 6 7 8 8 8 8 8 8 8 8 8 8 8 7 8 6 5 5 4 4 3 3 2 1 1 3 4 4 5 5 5
3 4 5 6 6 6 6 6 6 6 7 7 7 7 8 8 9 9 8 8 8 8 8 9 9 9 9 8 7 6 5 5 4 4 3 2 2 3 4 5 4 4 4
4 5 6 6 6 6 6 7 7 7 8 7 8 8 8 7 8 8 8 9 8 8 8 8 9 11 13 10 7 7 6 5 4 4 4 3 3 4 4 4 5 5 3
4 6 6 6 6 7 7 7 7 8 8 7 8 9 9 8 9 12 10 8 8 9 9 8 9 11 13 14 14 13 11 8 7 5 4 5 5 4 4 5 6 5 4
5 6 6 6 7 8 8 8 8 8 7 8 8 8 9 10 13 14 14 9 9 9 9 9 8 8 9 9 11 13 13 14 12 7 7 6 6 6 7 7 7 6 4
6 7 7 7 8 8 8 8 8 7 7 8 9 9 9 10 13 13 14 10 9 10 10 10 10 9 9 8 8 9 9 10 11 9 8 7 6 6 7 7 7 5 4
6 7 7 7 8 8 9 9 8 7 8 8 8 9 9 11 12 12 11 7 7 10 10 10 10 10 11 11 9 9 8 7 8 11 10 8 8 9 8 6 7 7 5
7 7 8 7 8 9 9 9 7 7 8 8 9 8 9 10 11 12 10 5 7 8 7 8 11 12 11 12 10 9 10 8 6 7 8 7 7 8 10 9 8 8 6
7 7 8 7 8 8 8 7 8 7 8 8 9 8 7 8 10 11 10 5 6 7 6 6 7 10 12 13 11 9 10 8 7 7 6 6 5 5 6 7 7 7 7
6 7 8 8 7 7 7 8 7 7 7 8 7 8 6 6 7 8 9 8 8 7 7 6 6 9 11 12 10 9 10 9 5 6 6 6 6 6 5 6 7 6 4
6 7 8 8 7 7 7 8 7 6 5 6 6 6 7 5 5 8 9 9 9 7 6 8 8 9 9 8 10 10 9 6 6 6 7 7 6 5 5 4 5 5 4
7 8 7 7 8 7 6 5 6 6 6 6 6 6 6 6 5 4 5 5 6 5 5 5 7 7 6 5 5 7 6 6 7 7 6 5 4 5 5 5 5 5 4
7 7 7 6 7 7 7 6 6 6 6 6 6 6 6 7 6 7 6 5 5 4 3 2 2 3 4 4 4 5 6 6 6 5 5 5 5 5 5 5 5 5 5
6 6 6 6 6 6 7 7 7 8 10 10 10 9 7 9 11 11 10 9 8 5 3 3 3 4 5 5 5 5 5 6 6 6 6 6 6 6 6 5 5 6 6
6 6 6 6 6 6 6 6 8 8 8 8 8 9 9 10 10 9 9 7 6 3 3 3 4 4 4 5 5 5 5 5 5 6 6 6 6 6 6 6 6 6 6
6 7 6 5 5 6 6 6 6 6 8 7 6 7 9 9 9 8 6 4 2 2 3 3 3 3 3 4 5 5 5 5 5 6 6 6 6 6 6 6 7 7 6
5 5 5 5 5 5 5 6 6 6 6 7 6 6 6 6 6 5 3 3 3 3 3 3 3 3 3 4 4 4 5 5 6 6 6 7 7 7 6 7 7 9 7
5 8 8 5 5 5 5 5 5 6 6 6 6 5 4 3 3 3 2 3 4 4 4 4 4 4 4 4 4 5 5 5 6 6 6 7 7 7 8 9 8 8 8
4 6 9 6 5 5 5 5 5 5 6 6 6 6 6 4 5 5 4 3 4 4 4 4 4 4 4 4 4 5 7 6 6 7 6 7 7 7 7 7 8 8 8
4 4 4 5 5 5 5 5 5 5 6 7 6 6 6 4 4 4 4 4 4 4 4 4 4 4 4 5 6 6 6 6 7 7 7 7 7 8 8 8 8 8 8
4 4 5 4 4 6 6 5 5 5 6 6 6 6 5 4 4 4 4 4 3 3 3 3 4 4 4 5 5 6 7 7 7 8 8 8 8 8 8 9 10 10 9
3 4 4 4 4 4 5 5 5 6 6 6 6 5 5 4 4 4 4 4 3 3 3 3 3 5 5 4 4 5 6 6 7 7 11 9 9 8 8 9 10 11 10
3 3 4 4 4 5 5 5 5 5 6 5 6 5 5 5 4 4 4 4 4 3 3 2 2 2 3 3 3 4 5 7 7 7 8 8 9 10 10 11 10 10 10
3 3 3 3 3 4 4 5 5 5 5 5 5 5 5 5 4 4 4 4 4 3 3 2 2 1 1 1 1 1 3 5 6 7 7 7 9 9 10 9 12 11 12
Wind_Direction
296 296 299 295 295 295 286 281 281 282 284 283 282 282 281 277 272 262 259 257 250 253 249 241 244 241 239 238 233 236 240 237 244 257 261 256 149 161 144 140 139 144 152
287 291 291 292 296 294 288 285 284 282 282 280 282 282 280 278 271 263 263 261 251 250 250 243 246 242 236 234 228 231 232 227 228 240 235 209 167 168 150 136 129 127 129
293 295 297 297 294 289 286 287 287 284 285 285 282 280 280 278 275 268 263 261 255 251 249 246 246 239 237 231 226 228 229 227 215 220 223 202 164 155 140 127 122 115 110
292 292 290 289 286 284 285 286 286 285 285 284 281 278 276 276 274 271 266 262 258 255 250 246 245 237 235 230 226 224 221 221 215 208 209 201 178 159 155 153 140 127 122
290 288 283 285 286 287 288 287 287 285 285 281 282 281 278 274 269 266 262 263 258 258 255 248 246 244 238 230 225 217 211 211 211 208 201 196 186 174 174 160 149 134 117
284 282 285 289 292 291 290 290 290 288 286 284 281 281 280 276 276 274 272 266 261 257 257 255 253 256 251 239 230 220 207 203 205 206 204 201 198 184 169 162 152 153 157
284 285 288 290 292 291 293 295 291 288 285 286 284 281 278 275 272 273 272 268 259 255 253 251 252 249 242 239 234 229 221 213 203 197 206 206 196 188 178 175 175 166 158
287 288 290 292 293 293 293 291 288 285 284 283 282 282 279 277 275 272 272 268 260 256 250 245 244 247 242 232 233 230 225 220 213 208 211 212 205 192 189 186 171 141 113
287 288 291 292 294 295 294 291 289 288 289 285 283 282 281 282 280 277 274 267 260 259 254 247 241 242 239 229 226 225 226 228 222 214 210 211 207 199 181 166 166 161 157
283 287 291 291 289 289 288 288 287 286 286 290 288 283 280 281 283 282 279 261 260 260 256 251 244 240 237 223 219 217 220 220 211 205 204 204 203 198 186 185 180 176 160
282 289 293 291 288 285 284 284 288 290 292 292 292 290 285 282 287 286 283 260 253 255 254 251 245 237 233 225 215 216 217 205 200 200 194 191 191 192 194 192 189 181 172
288 293 295 294 293 295 292 292 291 290 294 296 297 300 294 288 284 290 290 275 259 251 252 250 247 240 232 223 216 216 206 192 187 188 189 190 193 193 195 189 187 188 181
293 294 296 300 298 294 291 295 298 295 291 295 296 297 300 299 293 291 295 291 279 258 251 249 249 242 230 223 220 208 194 191 184 190 195 197 196 189 178 174 172 164 151
292 297 299 303 304 305 298 290 290 293 294 294 294 292 295 297 299 306 308 303 294 277 261 257 249 235 219 209 202 201 198 192 190 192 193 189 175 171 174 170 170 163 156
291 295 299 299 300 305 304 293 286 276 267 273 281 278 285 294 294 300 299 295 292 282 271 249 220 202 203 201 198 196 192 186 189 185 180 175 174 175 172 168 165 161 168
290 298 299 302 305 306 309 310 291 275 280 270 258 257 265 263 282 294 294 288 285 274 246 235 223 215 212 203 197 192 190 188 188 183 180 180 177 178 173 169 171 173 174
278 289 294 298 303 307 309 310 313 315 304 289 279 275 268 278 286 291 294 294 284 252 241 241 230 221 215 206 198 193 193 190 184 183 181 182 180 177 172 172 176 178 180
282 288 292 290 295 297 299 299 297 303 313 313 305 292 291 290 290 292 293 292 273 229 243 245 237 226 214 202 197 194 191 182 184 185 184 184 184 178 176 179 182 183 180
287 290 292 292 293 293 294 296 297 298 299 302 307 310 307 302 294 284 272 251 261 258 247 243 238 226 216 210 205 198 192 187 187 185 187 186 184 179 182 186 186 183 182
284 295 303 299 301 303 302 300 302 304 306 307 307 306 312 310 303 295 257 248 253 256 250 243 240 230 217 211 205 199 196 193 190 191 188 185 183 184 188 189 187 184 187
285 297 306 305 301 302 302 300 300 299 301 304 303 297 295 288 288 290 283 266 256 253 248 238 233 228 219 209 204 201 200 199 194 192 189 186 185 189 192 190 188 186 183
275 284 290 294 300 302 303 301 299 299 302 305 308 308 307 290 287 289 286 281 270 257 248 237 232 225 217 210 206 203 203 202 198 194 191 187 185 188 188 187 185 183 182
271 283 292 295 299 305 307 306 306 308 310 311 310 310 312 309 304 299 295 295 287 272 259 241 239 237 227 218 213 209 208 207 201 193 190 187 186 186 186 187 187 183 184
266 278 288 298 305 309 309 309 311 313 314 316 316 313 311 308 305 301 301 300 296 289 272 252 246 248 243 231 218 214 216 210 200 197 193 188 185 185 186 188 189 189 188
262 274 285 295 304 310 311 312 315 318 319 321 320 319 318 315 313 311 309 306 308 306 304 296 278 268 256 240 229 222 207 199 198 193 190 190 189 187 188 190 189 189 189
259 275 288 296 303 310 310 312 318 323 323 325 325 325 324 321 318 316 317 318 319 315 315 317 315 317 324 243 210 206 197 191 193 193 190 189 189 189 188 191 189 189 188